This is the latest recevied weather packets stored in our database for station/object F4IDZ-11. If no packets are shown the sender has not sent any weather packets the latest 10 day(s).
| Time | Temp. | Humidity | Pressure | Rain* | Wind** | Luminosity | Snow |
|---|---|---|---|---|---|---|---|
| 1777652548 | 22.22° C | 45% | 998.5 hPa | - | - | - | - |
| 1777651648 | 22.22° C | 46% | 998.4 hPa | - | - | - | - |
| 1777650748 | 22.22° C | 45% | 998.5 hPa | - | - | - | - |
| 1777649848 | 22.78° C | 46% | 998.8 hPa | - | - | - | - |
| 1777648947 | 22.78° C | 45% | 998.8 hPa | - | - | - | - |
| 1777648047 | 22.78° C | 45% | 998.9 hPa | - | - | - | - |
| 1777647147 | 22.78° C | 45% | 999.1 hPa | - | - | - | - |
| 1777646247 | 22.78° C | 45% | 999.2 hPa | - | - | - | - |
| 1777645347 | 22.78° C | 45% | 999.2 hPa | - | - | - | - |
| 1777644466 | 22.22° C | 45% | 999.4 hPa | - | - | - | - |
| 1777643566 | 22.22° C | 45% | 999.5 hPa | - | - | - | - |
| 1777642666 | 22.22° C | 45% | 999.7 hPa | - | - | - | - |
| 1777641766 | 22.22° C | 45% | 999.8 hPa | - | - | - | - |
| 1777640865 | 22.78° C | 45% | 999.8 hPa | - | - | - | - |
| 1777639965 | 23.33° C | 45% | 999.7 hPa | - | - | - | - |
| 1777639065 | 23.33° C | 44% | 999.7 hPa | - | - | - | - |
| 1777638165 | 23.33° C | 44% | 999.6 hPa | - | - | - | - |
| 1777637264 | 23.33° C | 44% | 999.7 hPa | - | - | - | - |
| 1777636364 | 22.78° C | 44% | 999.8 hPa | - | - | - | - |
| 1777635463 | 22.78° C | 45% | 999.9 hPa | - | - | - | - |
| 1777634563 | 22.22° C | 45% | 1000.1 hPa | - | - | - | - |
| 1777633663 | 22.22° C | 45% | 1000.1 hPa | - | - | - | - |
| 1777632763 | 21.67° C | 45% | 1000.1 hPa | - | - | - | - |
| 1777631863 | 20.56° C | 45% | 1000 hPa | - | - | - | - |
| 1777630963 | 20° C | 46% | 1000.3 hPa | - | - | - | - |
* Rain since midnight (hover to see other rain measurements)
** Current wind speed in m/s (hover to see current wind gust speed)